Theta_e
315 315 315 316 316 317 316 317 317 317 316 316 317 317 317 317 317 317 317 317 317 317 317 318 316 315 315 315 317 318 319 320 323 324 324 324 323 323 322 324 325 328 327 327
316 316 316 317 317 317 317 316 316 317 316 315 316 317 317 317 317 317 317 317 317 317 318 318 317 316 316 315 314 315 316 317 318 319 318 316 316 315 314 314 314 319 326 327
316 315 315 315 315 316 316 316 316 316 316 316 316 317 318 318 318 317 317 317 317 317 317 317 318 316 317 317 316 315 315 315 316 315 315 314 314 313 313 312 312 312 316 327
315 315 314 315 315 315 315 316 316 316 316 315 316 316 316 317 317 318 317 317 317 317 317 317 317 317 316 315 315 316 315 314 314 314 314 314 313 313 313 312 312 312 312 329
315 315 315 315 315 315 316 315 315 316 317 317 317 317 316 317 317 317 317 317 318 318 318 318 317 316 315 315 314 314 314 314 313 313 313 313 313 313 311 311 312 312 312 324
315 312 314 315 313 314 314 315 316 316 316 316 315 316 316 317 317 317 317 317 317 317 317 316 315 315 314 313 314 314 313 314 313 312 312 312 312 312 311 311 311 312 314 323
314 314 313 312 314 313 315 316 315 317 320 317 316 316 317 317 316 317 317 316 316 316 315 315 315 315 316 316 315 315 314 314 313 313 312 312 312 311 311 311 311 311 314 317
314 314 314 313 315 315 315 316 317 321 319 318 313 317 316 317 317 316 315 315 315 315 315 314 314 315 315 316 317 316 316 314 313 312 312 311 311 311 312 311 310 310 311 317
314 314 313 313 313 314 315 316 316 318 317 315 315 316 317 317 315 315 315 315 315 315 315 314 314 314 314 315 316 316 316 314 313 311 311 311 310 310 311 310 310 310 311 315
314 315 312 312 312 312 313 314 316 315 321 319 316 317 317 317 317 317 316 315 316 315 315 314 315 316 317 317 317 316 316 315 314 313 312 312 311 310 309 309 309 310 311 314
313 313 313 312 313 314 313 313 314 314 316 319 319 317 317 317 317 317 318 317 315 315 315 314 314 315 316 316 317 317 316 315 314 313 313 312 311 310 309 309 309 309 311 312
313 314 316 314 313 313 314 314 314 316 316 315 316 318 316 316 316 316 315 316 314 314 314 313 312 314 316 317 317 317 316 315 315 314 313 313 311 310 309 308 308 309 311 311
312 314 317 316 315 311 312 313 313 315 314 320 320 316 315 316 315 315 314 315 315 315 315 315 315 315 315 316 316 315 315 316 315 314 314 314 313 311 310 308 308 308 310 311
311 314 317 319 318 317 314 313 314 314 316 316 317 317 316 316 316 316 315 315 315 315 314 314 314 314 316 316 315 314 314 315 315 315 314 315 314 314 311 309 308 309 310 310
309 314 313 315 316 316 317 317 316 314 314 315 316 316 316 316 316 316 316 315 315 315 314 314 315 314 315 314 313 313 313 314 314 314 314 314 312 313 311 309 308 309 310 309
310 312 312 314 313 314 316 317 317 317 316 316 315 316 316 316 315 315 315 315 315 315 314 314 314 314 314 313 313 313 313 313 313 313 314 313 311 312 310 309 308 309 310 308
307 310 313 314 313 311 313 315 316 317 316 316 316 316 316 316 316 316 316 316 315 315 314 314 314 313 313 313 312 313 313 313 312 312 312 311 310 310 309 308 307 308 310 308
307 308 309 311 311 313 313 312 314 315 316 316 316 315 315 315 315 315 315 316 315 315 314 314 313 313 312 312 311 311 311 311 311 311 310 310 309 308 308 307 307 307 309 307
305 307 307 308 309 309 309 309 311 310 312 314 315 316 316 315 315 316 316 315 314 314 313 313 312 312 312 312 312 312 312 312 312 311 310 307 306 305 305 305 305 306 307 306
306 307 307 309 310 309 307 308 309 310 312 308 309 310 310 312 316 316 313 312 312 311 311 311 311 311 311 311 312 312 312 312 311 310 309 307 305 303 302 302 303 304 305 306
306 305 308 309 309 309 310 308 308 312 310 304 304 306 307 309 310 309 306 307 307 308 308 308 308 308 308 309 309 309 309 308 308 307 305 304 302 301 300 299 300 301 303 304
303 304 306 308 307 309 306 306 310 306 304 304 305 305 304 304 304 308 305 304 306 306 307 306 306 306 306 306 306 306 306 305 304 303 302 301 300 299 298 297 297 298 299 299
301 302 304 306 307 306 304 305 304 305 304 305 304 305 305 305 305 304 305 304 304 305 305 306 306 305 305 304 304 302 302 301 301 300 298 298 297 296 295 295 296 296 296 296
301 301 302 302 301 302 301 301 303 305 305 305 306 305 304 303 304 304 305 305 303 302 304 305 304 303 302 302 301 300 300 298 297 297 296 295 294 293 293 293 293 294 294 294
301 301 302 302 302 302 302 303 304 301 303 304 304 302 303 304 305 304 302 301 301 301 302 302 302 301 300 299 298 297 296 295 295 294 293 292 292 292 292 292 292 292 293 293
299 299 300 300 300 300 300 300 301 299 300 301 302 300 302 302 302 301 301 299 298 299 299 299 299 298 297 295 295 294 294 293 294 294 293 294 294 294 293 292 292 291 291 291
Wind_Speed
6 8 10 14 14 14 6 7 9 3 3 4 11 18 17 22 26 26 27 29 28 29 27 24 26 31 34 34 36 37 38 39 39 40 40 39 39 39 40 39 40 40 38 35
5 13 14 3 1 6 10 13 14 14 3 4 13 20 18 20 28 28 28 30 28 28 27 26 26 30 33 36 38 39 40 40 40 41 40 39 38 39 40 38 39 40 43 40
16 3 9 7 7 10 14 15 13 14 3 12 13 16 16 16 21 21 28 32 30 32 30 25 27 33 34 37 38 38 40 42 41 41 39 38 37 38 40 41 39 41 43 43
12 9 6 10 15 13 16 12 14 12 8 8 2 10 17 17 18 16 22 26 29 26 23 22 26 29 35 38 39 38 40 42 42 42 42 43 42 41 39 39 39 39 41 43
6 9 12 13 10 10 5 3 6 6 9 10 14 8 8 11 10 15 20 24 22 21 18 17 19 24 31 31 33 35 39 40 41 44 43 44 44 41 37 36 38 39 39 43
6 1 5 7 4 6 9 5 4 2 4 9 14 15 14 14 11 8 7 9 8 9 9 11 13 18 22 24 27 29 34 38 40 42 43 45 44 42 40 40 38 39 38 41
13 10 4 3 5 4 10 7 4 5 6 11 5 6 16 9 9 10 12 15 17 10 9 10 12 11 12 14 17 22 28 33 37 40 42 43 43 41 41 42 39 38 39 41
15 12 16 14 16 10 14 15 8 9 8 12 5 10 9 3 7 12 16 22 22 18 18 16 14 13 14 15 16 18 21 26 32 35 39 42 40 40 40 41 40 39 38 40
12 13 4 3 11 14 8 11 14 13 3 5 10 20 19 11 8 17 23 25 25 18 18 21 16 18 19 18 16 16 17 19 23 28 32 36 38 40 41 42 40 38 38 40
8 17 4 4 3 8 9 2 8 8 6 12 14 19 15 10 13 13 10 14 13 12 13 13 14 14 14 13 11 11 13 15 17 21 25 27 31 36 40 40 41 38 37 38
11 7 3 4 11 15 8 10 8 6 9 7 12 13 13 8 7 5 5 6 8 13 13 9 12 13 11 9 7 7 9 13 14 16 19 23 26 31 36 38 39 38 37 39
9 6 12 19 7 7 14 22 22 11 12 7 11 19 0 6 4 5 11 13 7 7 8 5 8 11 8 8 6 4 10 14 15 15 16 19 22 27 33 37 37 36 38 39
4 5 3 5 10 2 8 15 14 16 9 10 12 13 4 6 4 13 9 5 8 10 9 10 8 10 9 9 10 11 15 17 20 20 18 19 21 25 29 34 36 37 36 36
6 4 9 11 6 4 6 17 19 17 10 20 19 27 26 22 19 12 11 12 17 17 18 25 29 27 22 22 23 23 24 20 23 28 27 24 24 25 28 30 34 36 35 36
2 5 13 21 22 23 20 14 12 19 23 22 27 23 32 23 20 25 31 29 33 34 32 30 27 28 29 33 32 32 29 26 26 29 30 31 29 29 30 31 34 35 33 32
8 5 9 18 22 19 20 22 24 24 25 23 27 28 28 33 31 28 32 32 33 32 32 35 37 33 32 35 36 31 31 30 34 33 35 32 34 34 32 32 34 34 33 32
3 1 3 11 12 6 7 22 24 26 26 24 23 28 23 24 21 28 31 24 28 32 35 37 35 31 32 34 36 38 36 35 36 34 34 35 36 36 35 32 33 34 35 32
8 7 3 7 8 10 7 10 9 14 20 21 24 26 28 31 43 49 37 29 36 36 37 33 32 30 29 30 31 31 28 27 29 31 34 36 36 36 35 34 33 35 35 32
19 12 8 11 18 19 24 22 13 14 19 17 16 20 31 40 37 39 31 29 32 32 31 29 30 32 27 24 24 25 22 22 25 26 28 28 29 32 33 34 32 33 35 32
12 16 11 12 11 14 14 14 15 5 9 13 15 15 16 22 11 14 18 16 15 17 19 21 23 24 26 26 27 30 31 30 28 25 23 23 24 27 29 29 29 30 31 30
5 4 13 14 12 7 8 9 8 12 7 22 18 22 18 8 9 25 26 22 21 22 22 20 22 23 23 23 23 24 23 23 21 20 20 19 19 19 20 22 25 26 29 31
9 7 8 8 9 15 4 3 2 3 24 24 22 11 16 18 19 19 28 26 22 23 24 23 23 21 19 19 19 19 19 18 17 16 15 15 14 14 15 17 19 21 23 24
12 14 10 8 5 5 13 9 19 18 19 18 18 15 16 20 24 22 22 30 26 23 25 25 24 22 21 20 19 17 16 14 12 11 10 10 10 10 10 12 14 15 16 17
14 17 13 14 18 22 32 26 21 16 14 12 14 17 18 23 25 25 23 25 27 22 21 23 22 21 19 18 17 15 12 10 8 5 4 5 5 6 7 9 10 10 11 13
10 7 11 12 17 22 26 26 21 13 16 15 19 21 20 19 23 24 28 26 25 21 20 19 18 18 16 14 13 10 7 5 5 6 6 6 6 6 8 8 7 7 6 5
17 18 13 14 23 21 25 24 23 24 20 21 23 23 21 19 21 22 23 23 23 20 18 16 16 15 12 9 8 6 7 7 6 7 8 8 9 9 7 6 7 6 5 4
Wind_Direction
187 214 212 223 228 261 291 293 270 227 143 279 261 271 267 272 271 266 261 260 259 255 251 244 235 239 235 233 231 229 230 232 229 230 232 234 235 236 238 235 237 236 232 232
181 225 231 236 244 216 249 259 262 271 106 243 283 280 276 268 263 259 262 263 260 259 253 242 233 235 238 237 236 234 234 234 233 235 236 236 237 237 242 240 237 235 231 230
230 226 248 181 199 214 236 246 257 263 294 239 286 273 266 249 250 265 260 261 262 257 255 247 234 238 239 238 236 238 239 238 236 235 234 236 238 240 241 241 238 234 232 228
244 226 162 211 230 219 249 239 253 269 281 272 223 285 284 284 272 248 260 262 258 257 257 252 241 239 249 247 244 241 240 238 237 237 235 238 242 243 247 245 243 238 234 225
196 193 210 223 226 209 250 30 239 258 261 290 239 266 266 255 262 262 257 261 268 268 262 254 245 240 240 251 247 242 238 238 237 237 237 238 242 245 244 244 243 238 237 226
270 41 220 225 67 233 134 120 120 221 275 263 257 236 263 251 269 258 265 258 251 269 262 261 242 233 241 239 240 239 238 238 236 236 237 238 242 241 240 243 243 238 236 226
217 221 164 175 134 127 201 193 240 239 202 252 43 289 252 293 279 251 271 293 290 273 281 265 256 253 250 248 246 242 240 239 239 240 240 241 241 241 241 244 244 239 235 228
216 229 187 185 218 195 198 204 212 237 243 267 103 238 272 249 294 285 259 267 280 286 282 270 255 251 255 246 243 241 244 241 239 239 241 240 241 240 241 245 246 244 242 233
217 234 189 200 211 217 177 221 245 268 296 284 253 266 272 232 234 262 269 272 272 284 276 275 264 251 246 245 241 242 248 248 243 242 243 243 241 241 239 246 248 245 243 233
252 263 163 135 183 248 235 307 208 218 232 238 256 257 258 289 273 266 255 277 290 303 295 273 245 240 235 232 236 247 256 259 254 251 253 253 249 246 243 244 246 246 242 233
235 239 151 170 209 207 190 220 224 246 227 245 256 260 271 302 13 332 352 308 306 314 316 285 246 236 219 221 234 258 269 266 264 259 259 258 254 249 246 244 244 244 243 238
217 252 244 241 232 262 261 226 218 220 223 240 267 269 259 334 3 340 322 324 317 317 332 302 235 230 221 222 227 274 285 269 261 264 263 263 259 254 249 244 244 243 241 238
347 233 245 257 231 207 248 234 245 242 247 236 231 256 253 358 310 297 286 335 330 330 342 352 334 275 255 250 256 296 305 293 279 267 264 265 265 262 255 248 244 244 241 236
94 224 235 239 270 6 219 237 235 231 237 242 245 257 270 271 282 269 254 279 297 290 294 299 299 298 280 272 275 284 293 285 286 274 264 262 260 269 265 255 246 243 240 236
197 235 237 256 268 275 274 271 258 239 240 235 255 252 267 267 272 271 280 286 288 295 299 299 292 287 287 286 284 288 287 284 279 273 265 262 259 262 260 254 248 243 241 239
180 243 268 275 269 266 267 264 260 255 253 257 258 261 256 277 278 278 278 279 282 280 278 283 287 285 289 291 294 290 285 281 281 277 269 263 260 259 256 252 248 242 240 241
310 273 243 254 284 331 257 244 251 250 248 250 253 260 275 274 281 283 285 288 280 276 281 284 284 285 290 292 292 290 289 285 279 274 264 264 264 260 259 255 249 243 239 243
232 244 268 286 307 259 262 316 293 280 262 257 261 264 271 275 277 277 278 280 282 282 281 281 286 289 284 285 285 285 284 283 281 277 272 266 263 259 258 255 249 243 239 245
227 224 248 246 257 276 283 278 262 274 280 280 271 260 266 271 279 280 286 281 280 280 282 279 280 282 284 287 290 290 288 286 286 282 276 272 265 261 257 254 250 243 238 244
234 230 226 241 253 266 275 279 274 259 257 39 354 335 342 339 274 282 325 316 305 306 302 298 293 290 291 290 288 287 287 287 284 281 278 273 269 264 259 256 251 246 242 244
179 197 229 241 246 248 275 329 298 238 286 321 307 305 307 302 311 306 318 319 310 308 307 303 302 301 301 299 297 294 290 288 284 279 274 269 264 259 254 250 246 242 240 241
238 237 232 234 249 258 152 23 247 313 305 292 283 292 310 298 303 309 318 316 319 312 307 305 305 305 304 303 301 296 293 291 289 282 273 266 259 252 246 242 243 239 238 240
240 232 249 230 245 232 294 267 290 281 268 274 268 287 292 301 305 315 311 309 311 310 304 302 302 301 302 301 298 297 294 289 283 278 269 259 246 236 230 231 228 229 233 237
244 250 251 263 266 277 292 303 289 265 264 273 277 286 290 297 303 300 301 302 305 302 295 294 297 295 296 295 292 287 280 277 270 258 238 225 216 208 194 196 200 208 217 222
270 284 251 258 268 277 275 273 262 272 267 269 282 285 287 284 287 295 299 297 293 293 289 284 286 287 286 287 284 268 249 214 182 160 156 156 155 164 167 164 177 184 196 224
250 250 251 256 267 273 276 280 274 275 273 278 283 289 290 284 285 289 289 287 288 289 280 277 272 270 275 267 244 220 176 148 143 146 140 138 140 138 145 138 130 126 128 139